Regional Weather Roundup
Issued by NWS

Home | Current Version | Previous Version | Graphics & Text | Print | Product List | Glossary On
Versions: 1 2 3 4 5 6 7 8 9 10 11 12 13 14 15 16 17 18 19 20 21 22 23 24 25 26 27 28 29 30 31 32 33 34 35 36 37 38 39 40 41 42 43 44 45 46 47 48 49 50
000
ASUS43 KLMK 260710
RWRKY
KENTUCKY REGIONAL WEATHER ROUNDUP
NATIONAL WEATHER SERVICE LOUISVILLE KY
300 AM EDT TUE SEP 26 2017

NOTE "FAIR" INDICATES FEW OR NO CLOUDS BELOW 12,000 FEET
WITH NO SIGNIFICANT WEATHER AND/OR OBSTRUCTIONS TO VISIBILITY.

KYZ001>023-026-027-061>063-070>075-260800-
WESTERN AND SOUTH CENTRAL KENTUCKY

CITY           SKY/WX    TMP DP  RH WIND       PRES   REMARKS
PADUCAH        CLEAR     66  63  90 CALM      29.96R
HENDERSON      CLEAR     66  65  96 CALM      29.97S
OWENSBORO      PTCLDY    68  67  96 CALM      29.98S
HOPKINSVILLE   CLEAR     69  66  89 CALM      29.97R
BOWLING GREEN  CLEAR     67  67 100 CALM      29.98S
GLASGOW        CLEAR     63  63 100 CALM      29.99S FOG
$$

KYZ024-025-028>034-038-045-046-053-260800-
NORTH CENTRAL KENTUCKY

CITY           SKY/WX    TMP DP  RH WIND       PRES   REMARKS
LOUISVILLE/SDF CLEAR     72  65  78 CALM      29.99R
LOUISVILLE/LOU CLEAR     68  67  96 CALM      29.99S
FORT KNOX      CLEAR     64  64 100 CALM      29.98S
$$

KYZ035>037-039>044-047>052-055>060-089>105-260800-
NORTHEAST KENTUCKY

CITY           SKY/WX    TMP DP  RH WIND       PRES   REMARKS
LEXINGTON      CLEAR     66  61  84 CALM      30.01F
COVINGTON      CLEAR     67  64  90 CALM      30.01S
FRANKFORT      CLEAR     65  61  87 CALM      29.99S
$$

KYZ054-064>069-076>088-106>120-260800-
SOUTHEAST KENTUCKY

CITY           SKY/WX    TMP DP  RH WIND       PRES   REMARKS
JACKSON        CLEAR     69  63  81 CALM      30.03S
LONDON         CLEAR     62  60  93 CALM      30.01F
SOMERSET       CLEAR     61  61 100 CALM      30.02S
MIDDLESBORO    MOCLDY    60  60 100 CALM      30.04S
MONTICELLO     MOSUNNY   57  57 100 NE9       30.03S FOG
$$




USA.gov is the U.S. government's official web portal to all federal, state and local government web resources and services.